星链-3942 (STARLINK-3942 )

导读 | 星芒AI

STARLINK-3942 是 SpaceX Starlink 项目中的一颗低轨通信卫星,属于第 12 批部署的 Starlink 卫星群。该卫星于 2022 年 3 月 30 日由猎鹰 9 号火箭从佛罗里达州肯尼迪航天中心发射升空。它运行在约 550 公里的轨道高度,旨在为全球提供高速互联网服务。STARLINK-3942 采用先进的星间激光通信技术,提高数据传输效率,减少对地面基站的依赖,是 SpaceX 构建全球宽带网络的重要组成部分。

基本信息
目录编号:
52563
目录名称:
STARLINK-3942
国际标识:
2022-051AG
轨道中心:
EARTH
卫星名称:
星链-3942
卫星全名:
星链-3942 (STARLINK-3942 )
卫星状态:
在轨 (已飞行1318 天)
发射日期:
2022-05-13 UTC
国别 :
美国 (US)
星等 :
--
轨道信息
数据来源 国际轨道数据 AOE轨道数据
星历时间 2025-12-21T00:13:29+0800
11小时前
查看轨道信息
2025-12-17T12:00:00+0800
3天前
查看轨道信息
半长轴 6917.899km 6917.818km
偏心率 0.0001189 0.0001401
轨道倾角 53.217° 53.215°
近地点辐角 90.029° 76.211°
升交点赤经 128.827° 144.581°
平近点角 270.084° 291.364°
近地点 538.939km 538.713km
远地点 540.585km 540.653km
周期 95.438分钟 95.436分钟
每日圈数 15.08834 15.088607
详细信息
固有亮度:
5
最大亮度:
2.5
卫星平台:
Starlink v1.5
覆盖范围:
全球
运营商:
太空探索技术公司
运营商所在国:
美国
制造商(研发单位):
太空探索技术公司
制造商所在国:
美国
使用方式:
暂无
卫星简介
星链(Starlink)计划是由太空探索技术公司(SpaceX)提出的一个巨型低轨卫星互联网星座项目,计划在2019年至2024年间在太空搭建由约1.2万颗卫星组成的“星链”网络,其中1584颗将部署在地球上空550千米处的近地轨道,并从2020年开始工作。该卫星仍在工作。
2D轨道图
3D轨道图
轨道高度分析图
轨道倾角分析图
轨道综合分析图
查看轨道综合分析图